Regional Weather Roundup
Issued by NWS State College, PA

Home | Current Version | Previous Version | Text Only | Print | Product List | Glossary On
Versions: 1 2 3 4 5 6 7 8 9 10 11 12 13 14 15 16 17 18 19 20 21 22 23 24 25 26 27 28 29 30 31 32 33 34 35 36 37 38 39 40 41 42 43 44 45 46 47 48 49 50
000
ASUS41 KCTP 251910
RWRCTP

REGIONAL WEATHER ROUNDUP
NATIONAL WEATHER SERVICE STATE COLLEGE PA
300 PM EDT SUN JUN 25 2017

Note: "fair" indicates few or no clouds below 12,000 feet with no
significant weather and/or obstructions to visibility.

* = STATION THAT DOES NOT REPORT PRECIPITATION /E.G. RAIN...SNOW...ETC/
    THUNDER OR FOG.

PAZ002>004-007>009-013>016-020>023-029>032-252000-
WESTERN PENNSYLVANIA

CITY           SKY/WX    TMP DP  RH WIND       PRES   REMARKS
ERIE           SUNNY     69  52  54 W21G37    29.99F
MEADVILLE      CLOUDY    68  49  50 W9        30.01S
FRANKLIN*      PTSUNNY   70  45  40 W16G23    30.03F
NEW CASTLE     MOCLDY    74  49  41 W16G28    30.03F
BEAVER COUNTY  NOT AVBL
BUTLER*        SUNNY     73  48  40 SW22G30   30.04F
PITTSBURGH INT MOSUNNY   75  46  35 W15G24    30.04F
PITTSBURGH     MOSUNNY   74  45  35 W15G26    30.05F
INDIANA*       PTSUNNY   72  50  46 W15G21    30.07F
LATROBE        PTSUNNY   73  48  40 W13G20    30.07F
WASHINGTON CO* MOSUNNY   73  46  38 SW16G25   30.09F
$$

PAZ004>006-010>012-017>019-024>028-033>037-041-042-045-046-049>053-252000-
CENTRAL PENNSYLVANIA

CITY           SKY/WX    TMP DP  RH WIND       PRES   REMARKS
BRADFORD       PTSUNNY   67  46  47 SW9G17    30.01F
DUBOIS         MOSUNNY   72  48  42 SW13G24   30.02F
CLEARFIELD     MOSUNNY   73  47  39 W13G23    30.03F
JOHNSTOWN      PTSUNNY   67  47  48 W8G20     30.07F
ALTOONA        MOSUNNY   74  49  41 W18       30.05S
STATE COLLEGE  MOSUNNY   75  52  43 W12       30.01F
WILLIAMSPORT   MOSUNNY   81  49  32 W14G22    29.95F
SELINSGROVE    PTSUNNY   77  53  43 NW7       29.98F
FT INDIANTOWN  SUNNY     81  53  38 NW8       29.97F
CAPITAL CITY   MOSUNNY   83  51  33 W13G20    29.97F
HARRISBURG     PTSUNNY   80  56  43 NW8       29.96F
YORK           MOSUNNY   80  55  42 W12       29.98F
$$

PAZ038>040-043-044-047-048-054-055-060>062-067>071-252000-
EASTERN PENNSYLVANIA

CITY           SKY/WX    TMP DP  RH WIND       PRES   REMARKS
SCRANTON       PTSUNNY   77  51  40 W13       29.96F
MOUNT POCONO   PTSUNNY   70  53  54 W12       30.01F
ALLENTOWN      PTSUNNY   79  56  45 W9        29.95F
QUAKERTOWN*    PTCLDY    82  57  42 W12G17    29.97F
READING        SUNNY     83  56  39 W12       29.95F
LANCASTER      MOSUNNY   81  56  42 W13       29.97F
COATESVILLE    PTCLDY    79  61  53 VRB5      29.99F
POTTSTOWN      PTSUNNY   78  57  48 VRB5      29.98F
BLUE BELL      MOSUNNY   81  57  44 W8G16     29.97F
DOYLESTOWN     MOSUNNY   82  56  40 W10G16    29.95F
WILLOW GROVE   NOT AVBL
NORTH PHILA    MOSUNNY   85  56  37 W14G21    29.96F
PHILADELPHIA   PTSUNNY   85  53  33 W12       29.95F
$$



USA.gov is the U.S. government's official web portal to all federal, state and local government web resources and services.